This is the latest recevied weather packets stored in our database for station/object K0QED. If no packets are shown the sender has not sent any weather packets the latest 10 day(s).
| Time | Temp. | Humidity | Pressure | Rain* | Wind** | Luminosity | Snow |
|---|---|---|---|---|---|---|---|
| 1788540953 | 27.22° C | 28% | 1025.4 hPa | 0 mm | - | 760 W/m² | - |
| 1788540652 | 27.22° C | 28% | 1025.6 hPa | 0 mm | - | 750 W/m² | - |
| 1788540348 | 27.22° C | 30% | 1025.5 hPa | 0 mm | - | 777 W/m² | - |
| 1788540044 | 26.67° C | 30% | 1025.4 hPa | 0 mm | - | 772 W/m² | - |
| 1788539743 | 26.67° C | 29% | 1025.2 hPa | 0 mm | - | 754 W/m² | - |
| 1788539439 | 26.67° C | 28% | 1025.4 hPa | 0 mm | - | 724 W/m² | - |
| 1788539133 | 26.67° C | 30% | 1025.6 hPa | 0 mm | - | 708 W/m² | - |
| 1788538828 | 26.11° C | 30% | 1025.1 hPa | 0 mm | - | 665 W/m² | - |
| 1788538523 | 26.11° C | 31% | 1025.5 hPa | 0 mm | - | 670 W/m² | - |
| 1788538235 | 25° C | 31% | 1025.2 hPa | 0 mm | - | 605 W/m² | - |
| 1788537913 | 25° C | 31% | 1025 hPa | 0 mm | - | 574 W/m² | - |
| 1788537610 | 24.44° C | 33% | 1025.1 hPa | 0 mm | - | 79 W/m² | - |
| 1788537309 | 24.44° C | 32% | 1025.1 hPa | 0 mm | - | 94 W/m² | - |
| 1788537009 | 24.44° C | 32% | 1025.4 hPa | 0 mm | - | 34 W/m² | - |
| 1788536702 | 24.44° C | 32% | 1025 hPa | 0 mm | - | 29 W/m² | - |
| 1788536397 | 24.44° C | 33% | 1025.1 hPa | 0 mm | - | 29 W/m² | - |
| 1788536092 | 24.44° C | 33% | 1025.1 hPa | 0 mm | - | 55 W/m² | - |
| 1788535789 | 24.44° C | 34% | 1024.9 hPa | 0 mm | - | 28 W/m² | - |
| 1788535484 | 23.89° C | 34% | 1025.4 hPa | 0 mm | - | 31 W/m² | - |
| 1788535184 | 23.89° C | 33% | 1025 hPa | 0 mm | - | 27 W/m² | - |
| 1788534879 | 23.33° C | 35% | 1025 hPa | 0 mm | - | 28 W/m² | - |
| 1788534573 | 23.33° C | 35% | 1025 hPa | 0 mm | - | 27 W/m² | - |
| 1788534268 | 23.33° C | 34% | 1024.9 hPa | 0 mm | - | 132 W/m² | - |
| 1788533966 | 23.33° C | 35% | 1025.2 hPa | 0 mm | - | 53 W/m² | - |
| 1788533663 | 22.78° C | 35% | 1024.7 hPa | 0 mm | - | 69 W/m² | - |
* Rain latest hour (hover to see other rain measurements)
** Current wind speed in m/s (hover to see current wind gust speed)